Regional Weather Roundup
Issued by NWS

Home | Current Version | Previous Version | Graphics & Text | Print | Product List | Glossary On
Versions: 1 2 3 4 5 6 7 8 9 10 11 12 13 14 15 16 17 18 19 20 21 22 23 24 25 26 27 28 29 30 31 32 33 34 35 36 37 38 39 40 41 42 43 44 45 46 47 48 49 50
000
ASUS43 KIND 020059
RWRIN

WEATHER ROUNDUP FOR INDIANA
NATIONAL WEATHER SERVICE INDIANAPOLIS IN
900 PM EDT SUN MAY 01 2016

NOTE: "FAIR" INDICATES FEW OR NO CLOUDS BELOW 12,000 FEET WITH NO
SIGNIFICANT WEATHER AND/OR OBSTRUCTIONS TO VISIBILITY.

* - STATION DOES NOT REPORT WEATHER SUCH AS PRECIPITATION OR FOG.

+ - STATION NOT QUALITY CONTROLLED BY THE NATIONAL WEATHER SERVICE.
    USE DATA WITH CAUTION...ESPECIALLY DEWPOINT AND RELATIVE
    HUMIDITY OBSERVATIONS.

INZ001>003-010>013-019-020-020200-
NORTHWEST INDIANA

CITY           SKY/WX    TMP DP  RH WIND       PRES   REMARKS

$$

LMZ046-743>745-020200-
SOUTHERN LAKE MICHIGAN

STATION/POSITION TIME  TEMP    WIND        PRES    WAVE
                       AIR SEA DIR/SP/G            HT
                 (UTC) (F)     (DEG/KT/KT) (MB)    (FT)
BURNS HARBOR     0018   46      30/ 16/ 19 1014.2F
MICHIGAN CITY    0000   46      10/ 17/ 18   N/A

$$

INZ004-005-014>016-021>024-020200-
NORTH CENTRAL INDIANA

CITY           SKY/WX    TMP DP  RH WIND       PRES   REMARKS
GOSHEN         CLOUDY    52  49  89 NE10      29.95R
SOUTH BEND     CLOUDY    51  48  89 E9        29.95S

$$

INZ006>009-017-018-025>027-020200-
NORTHEAST INDIANA

CITY           SKY/WX    TMP DP  RH WIND       PRES   REMARKS
ANGOLA *+      CLOUDY    52  50  93 E10       29.95S
FORT WAYNE     CLOUDY    55  52  89 E13       29.93F

$$

INZ028-029-035-036-043>045-051>053-020200-
WEST CENTRAL INDIANA

CITY           SKY/WX    TMP DP  RH WIND       PRES   REMARKS
CRAWFORDSVL +  RAIN      65  63  94 NW6       29.85R
LAFAYETTE      LGT RAIN  57  55  93 N13       29.87R
TERRE HAUTE    CLEAR     65  60  84 NW3       29.85R

$$

INZ030>032-037>040-046>048-054>057-064-065-020200-
CENTRAL INDIANA

CITY           SKY/WX    TMP DP  RH WIND       PRES   REMARKS
COLUMBUS       PTCLDY    63  63 100 S8        29.86F
INDIANAPOLIS   CLOUDY    71  54  54 CALM      29.80F THUNDER
-EAGLE CREEK   CLOUDY    69  60  73 CALM      29.82F
KOKOMO *+      CLOUDY    61  54  77 NE15G21   29.86F
SHELBYVILLE    LGT RAIN  68  59  73 S12       29.84F

$$

INZ033-034-041-042-049-050-058-059-020200-
EAST CENTRAL INDIANA

CITY           SKY/WX    TMP DP  RH WIND       PRES   REMARKS
MUNCIE         MOCLDY    63  58  83 NE15      29.87S

$$

INZ060-061-067>069-081>083-085>088-020200-
SOUTHWEST INDIANA

CITY           SKY/WX    TMP DP  RH WIND       PRES   REMARKS
EVANSVILLE     CLEAR     72  60  66 S8        29.86S
HUNTINGBURG *+ PTCLDY    72  63  73 S9        29.87S

$$

INZ062-063-066-070>080-084-089>092-020200-
SOUTH CENTRAL AND SOUTHEAST INDIANA

CITY           SKY/WX    TMP DP  RH WIND       PRES   REMARKS
BLOOMINGTON    CLEAR     64  57  78 S6        29.85F
MADISON *+     CLEAR     63  59  88 SE3       29.90F
SEYMOUR +      CLEAR     64  63  94 SE3       29.87F

$$





USA.gov is the U.S. government's official web portal to all federal, state and local government web resources and services.